Location: Ferma
(41.9500°N, 44.5167°E)
Time: 04:37:33
(UTC+00:00)

NOSS 2-3 (D) - Pass Details

Date: 04 June 2022
Orbit: 536 x 1674 km, 63.3° (Epoch: 02 June)

Event Time Altitude Azimuth Distance (km) Brightness Sun altitude
Rises 17:37:46 0° 328° (NNW) 3,428 9.1 -10.4°
Reaches altitude 10° 17:40:03 10° 334° (NNW) 2,633 8.0 -10.7°
Maximum altitude 17:46:10 52° 50° (NE) 1,383 5.3 -11.5°
Enters shadow 17:53:03 14° 122° (ESE) 3,057 6.5 -12.4°
